Regional Weather Roundup
Issued by NWS

Home | Current Version | Previous Version | Text Only | Print | Product List | Glossary On
Versions: 1 2 3 4 5 6 7 8 9 10 11 12 13 14 15 16 17 18 19 20 21 22 23 24 25 26 27 28 29 30 31 32 33 34 35 36 37 38 39 40 41 42 43 44 45 46 47 48 49 50
000
ASHW40 PHFO 160530
RWRHI

WEATHER ROUNDUP FOR HAWAII
NATIONAL WEATHER SERVICE HONOLULU HI
700 PM HST MON SEP 15 2014

THIS IS AN AUTOMATED REPORT THAT HAS NOT BEEN QUALITY CONTROLLED.

NOTE..."FAIR" INDICATES FEW OR NO CLOUDS BELOW 12,000 FEET WITH NO
SIGNIFICANT WEATHER AND/OR OBSTRUCTIONS TO VISIBILITY.

* - THESE SITES REPORT LIMITED FIELDS

HIZ001>004-160600-
KAUAI-NIIHAU-

CITY           SKY/WX    TMP DP  RH WIND       PRES   REMARKS
LIHUE APT      PTCLDY    80  71  74 NE13      29.95R
PORT ALLEN*      N/A     82 N/A N/A W3          N/A
POIPU*           N/A     81 N/A N/A NE7G14      N/A
PRINCEVILLE*   NOT AVBL
KOKOLE POINT*  NOT AVBL
MOLOAA DAIRY*  NOT AVBL
WAIMEA HTS*    NOT AVBL
PUU OPAE*      NOT AVBL
PUU LUA*       NOT AVBL
MAKAHA RIDGE*  NOT AVBL
$$

HIZ005>011-160600-
OAHU-

CITY           SKY/WX    TMP DP  RH WIND       PRES   REMARKS
HONOLULU       PTCLDY    83  68  60 NE7       29.92R
KALAELOA       CLEAR     82  68  62 VRB3      29.93R
KANEOHE MCB    CLEAR     82  73  73 NE10      29.93R
WHEELER FIELD  FAIR      78  68  70 VRB5      29.95R
BELLOWS*         N/A    N/A N/A N/A NE12        N/A
KAHUKU*          N/A    N/A N/A N/A NE5         N/A
WHEELER*       NOT AVBL
WAIANAE HARBOR NOT AVBL
DILLINGHAM*      N/A     81  72  74 NE3G12      N/A
KAHUKU TRN*      N/A     77  70  78 NE6G12      N/A
KAWAILOA*      NOT AVBL
KII*             N/A     81  73  78 NE10        N/A
MAKUA RANGE*     N/A     81  70  69 NE7G16      N/A
OAHU FOREST NW NOT AVBL
SCHOFIELD BRK*   N/A     77  68  73 MISG        N/A
SCHOFIELD S*   NOT AVBL
WAIANAE VLY*   NOT AVBL
KUAOKALA*      NOT AVBL
HONOULIUULI*   NOT AVBL
MOKUOLOE IS*     N/A    N/A N/A N/A MISG        N/A
PALEHUA*       NOT AVBL
WAIAWA PHB*    NOT AVBL
$$

HIZ012>013-160600-
MOLOKAI-

CITY           SKY/WX    TMP DP  RH WIND       PRES   REMARKS
MOLOKAI AIRPT  PTCLDY    79  74  84 NE6       29.94R
KALAUPAPA      NOT AVBL
MAKAPULAPAI*   NOT AVBL
MOLOKAI 1*     NOT AVBL
PUU ALII*        N/A     62  60  93 E2G10       N/A
$$

HIZ016-160600-
KAHOOLAWE-

CITY           SKY/WX    TMP DP  RH WIND       PRES   REMARKS
KAHOOLAWE*     NOT AVBL
HAKIOAWA*      NOT AVBL
HONOKANAIA*      N/A     81  68  64 N8G14     29.91
KANELOA*         N/A     81  68  65 NE12G21   29.13S
KEALIALALO*    NOT AVBL
LUA MAKIKA*    NOT AVBL
$$

HIZ014>015-160600-
LANAI-

CITY           SKY/WX    TMP DP  RH WIND       PRES   REMARKS
LANAI CITY     FAIR      75  68  79 NE18      29.97R
LANAI 1*       NOT AVBL
$$

HIZ017>028-160600-
MAUI-

CITY           SKY/WX    TMP DP  RH WIND       PRES   REMARKS
KAHULUI        PTCLDY    81  71  71 NE12      29.92R
KAPALUA-W MAUI NOT AVBL
HANA AIRPORT   PTCLDY    75  72  88 CALM      29.96R
HANA*            N/A     79 N/A N/A W3          N/A
HALEAKALA SUMM   N/A     50  27  40 NE9G22      N/A
MAALAEA BAY*   NOT AVBL
HALEAKALA*     NOT AVBL
KAUPO GAP*     NOT AVBL
KULA 1*          N/A     58  53  84 E3          N/A
$$

HIZ023>026-160600-
BIG ISLAND OF HAWAII COAST AND LOWER SLOPES-

CITY           SKY/WX    TMP DP  RH WIND       PRES   REMARKS
KAILUA KONA    MOCLDY    82  73  74 SE16      29.87R
HILO           CLOUDY    81  72  74 N7        29.92R
HONOKAA*       NOT AVBL
KAWAIHAE MWT*    N/A     88 N/A N/A E7G14       N/A
KAWAIHAE*        N/A     84 N/A N/A SE8         N/A
SOUTH POINT*     N/A     75 N/A N/A NE2         N/A
UPOLU AIRPORT*   N/A    N/A N/A N/A E10G16      N/A
KAMUELA*       PTCLDY    66  64  94 NE12      30.05R
HAKALAU*         N/A     58  57  96 CALM        N/A
KALOKO-HONOKO*   N/A     79  73  83 E6        29.88R
PALI 2*          N/A     70  70 100 E3          N/A
KEALAKOMO*       N/A     77  73  88 CALM        N/A
KAUPULEHU*     NOT AVBL
KAPAPALA*        N/A     72  70  93 CALM        N/A
LOWER KAHUKU*  NOT AVBL
PUHE CS*       NOT AVBL
PUHO CS*         N/A     80  68  67 NE3G9       N/A
PTA KEAMUKU*     N/A     66  61  82 NE9G16      N/A
WAIKOLOA*      NOT AVBL
$$

HIZ027>028-160600-
BIG ISLAND OF HAWAII INTERIOR AND SUMMMITS-

CITY           SKY/WX    TMP DP  RH WIND       PRES   REMARKS
BRADSHAW FIELD MOCLDY    61  61 100 W2        30.30R FOG
MK VISITOR CEN   N/A      0   0 100 MISG        N/A
MAUNA KEA*       N/A     41  27  56 CALM        N/A
MAUNA LOA*       N/A     48  45  87 MISG        N/A
MAUNA LOA 1*     N/A     48  46  93 MISG        N/A
PTA KIPUKA*      N/A     63  63 100 N2          N/A
PTA RANGE 17*    N/A    N/A N/A N/A W5          N/A
PTA WEST*        N/A     64  64 100 W3          N/A
NENE CABIN*    NOT AVBL
AHUMOA*        NOT AVBL
PTA PORTABLE*  NOT AVBL
PUU MALI*      NOT AVBL
$$

HIC003-160600-
NORTHWEST ISLANDS-

CITY           SKY/WX    TMP DP  RH WIND       PRES   REMARKS
MIDWAY ISLAND  MOSUNNY   84  75  74 NE8       30.08R HX  92
MIDWAY NOS*    NOT AVBL
FRENCH FRIGATE NOT AVBL
$$

PHZ110>124-180-160600-
BUOY REPORTS

STATION/POSITION TIME  TEMP    WIND        PRES    WAVE   SWELL
                       AIR SEA DIR/SP/G            HT/PER HT/DIR
                 (UTC) (F)     (DEG/KT/KT) (MB)    (FT/S) (FT/D)
BUOY 51001       NOT AVBL
BUOY 51101       NOT AVBL
BUOY 51100       0500   81 82   20/  8/ 10 1012.9R   5/11   5/280
BUOY 51003       0500   81 85  360/  2/  6 1012.7R   5/16   5
BUOY 51004       0439   79 81   50/  8/ 10 1012.7R   6/16   7/210
BARBERS PT BUOY  NOT AVBL
WAIMEA BAY BUOY  0500      82                N/A     4/11   3/320
KAILUA BAY BUOY  0500      83                N/A     3/11   2/ 60
LANAI BUOY       NOT AVBL
BARBERS PT 2     0500      83                N/A     5/14   3/180
PAUWELA MAUI     0500      82                N/A     3/11   2/340
HILO             0500      82                N/A     4/11   2/130
KANEOHE BAY BUOY NOT AVBL
HANALEI KAUAI    NOT AVBL
KAHULUI HARBOR   0500      83              1013.2
HONOLULU HARBOR  0500                      1013.5R
KILO NALU        NOT AVBL
HILO HARBOR      0500                      1012.7R
MOKUOLOE         0500      86              1013.9
NAWILIWILI       0500      84                N/A
WHOTS BUOY       NOT AVBL
BUOY 51028       NOT AVBL
$$

......................KEY........................................
  SKY/WX - SKY CONDITIONS/PRESENT WEATHER
  TMP    - TEMPERATURE IN FAHRENHEIT
  DWPT   - DEWPOINT IN FAHRENHEIT
  RH     - RELATIVE HUMIDITY IN PERCENT
  WIND   - DIRECTION AND SPEED /MPH FOR ISLANDS...KTS FOR BUOYS/
  PRES   - MEAN SEA LEVEL PRESSURE IN INCHES OF HG
  VSB    - VISIBILITY IN MILES
  HX     - HEAT INDEX
  WCI    - WIND CHILL INDEX
  VRB    - VARIABLE WIND DIRECTION
  N/A    - NOT AVAILABLE


USA.gov is the U.S. government's official web portal to all federal, state and local government web resources and services.